User: anonymous   Login
Location: Unspecified
(0.0000°N, 0.0000°E)
Time: 10:35:59
(UTC+02:00)
Language:

ARIANE 5 R/B - Orbit

View from above orbital plane
View from above orbital plane
View from above satellite
View from above satellite

Ground track
Ground track

The orbit data is extracted from the following two-line orbital elements,

1 28886U 05041C   17266.71814961 -.00000150 +00000-0 +13367-3 0  9991
2 28886 008.1610 327.2707 7188950 169.0918 006.9134 02.24338121097881
Epoch (UTC): 23 September 2017 17:14:08
Eccentricity: 0.7188950
inclination: 8.1610°
perigee height: 551 km
apogee height: 35990 km
right ascension of ascending node: 327.2707°
argument of perigee: 169.0918°
revolutions per day: 2.24338121
mean anomaly at epoch: 6.9134°
orbit number at epoch: 9788

The dashed part of the orbit path shows where the satellite is in the earth's shadow,  

DLR